| time (UTC) | temp C | wind direction | speed KPH | gust KPH | rain 1hr cm | rain 24hr cm | rain mn cm | humidity % | barometer mb |
| 20260509045457 | 9 | 49 | 3.2 | 8.0 | 0.00 | 0.00 | 0.00 | 92 | 1020.9 |
| 20260509044957 | 9 | 58 | 3.2 | 9.7 | 0.00 | 0.00 | 0.00 | 92 | 1020.9 |
| 20260509044458 | 9 | 39 | 3.2 | 9.7 | 0.00 | 0.00 | 0.00 | 91 | 1021.0 |
| 20260509043958 | 9 | 49 | 3.2 | 8.0 | 0.00 | 0.00 | 0.00 | 91 | 1020.9 |
| 20260509043458 | 9 | 338 | 3.2 | 8.0 | 0.00 | 0.00 | 0.00 | 91 | 1020.9 |
| 20260509042957 | 9 | 37 | 3.2 | 8.0 | 0.00 | 0.00 | 0.00 | 91 | 1021.0 |
| 20260509042457 | 9 | 43 | 1.6 | 4.8 | 0.00 | 0.00 | 0.00 | 91 | 1021.0 |
| 20260509041957 | 9 | 328 | 1.6 | 4.8 | 0.00 | 0.00 | 0.00 | 92 | 1021.0 |
| 20260509041456 | 9 | 345 | 1.6 | 4.8 | 0.00 | 0.00 | 0.00 | 91 | 1021.0 |
| 20260509040955 | 9 | 358 | 1.6 | 6.4 | 0.00 | 0.00 | 0.00 | 92 | 1021.0 |
| 20260509040455 | 9 | 11 | 3.2 | 6.4 | 0.00 | 0.00 | 0.00 | 92 | 1021.0 |
| 20260509035955 | 9 | 1 | 3.2 | 6.4 | 0.00 | 0.00 | 0.00 | 92 | 1020.9 |
| 20260509035455 | 9 | 16 | 3.2 | 6.4 | 0.00 | 0.00 | 0.00 | 92 | 1020.8 |
| 20260509034949 | 9 | 6 | 3.2 | 6.4 | 0.00 | 0.00 | 0.00 | 92 | 1020.9 |
| 20260509034443 | 9 | 342 | 3.2 | 6.4 | 0.00 | 0.00 | 0.00 | 92 | 1020.8 |
| 20260509033944 | 9 | 16 | 1.6 | 6.4 | 0.00 | 0.00 | 0.00 | 92 | 1020.7 |
| 20260509033443 | 9 | 4 | 1.6 | 4.8 | 0.00 | 0.00 | 0.00 | 92 | 1020.7 |
| 20260509032944 | 9 | 336 | 1.6 | 4.8 | 0.00 | 0.00 | 0.00 | 92 | 1020.7 |
| 20260509032443 | 9 | 11 | 1.6 | 4.8 | 0.00 | 0.00 | 0.00 | 92 | 1020.7 |
| 20260509031943 | 9 | 358 | 1.6 | 4.8 | 0.00 | 0.00 | 0.00 | 92 | 1020.7 |
| 20260509031443 | 9 | 42 | 1.6 | 4.8 | 0.00 | 0.00 | 0.00 | 92 | 1020.6 |
| 20260509030941 | 9 | 328 | 1.6 | 4.8 | 0.00 | 0.00 | 0.00 | 91 | 1020.5 |
| 20260509030441 | 9 | 338 | 1.6 | 4.8 | 0.00 | 0.00 | 0.00 | 92 | 1020.6 |
| 20260509025941 | 9 | 37 | 1.6 | 4.8 | 0.00 | 0.00 | 0.00 | 92 | 1020.5 |
| 20260509025439 | 9 | 89 | 1.6 | 3.2 | 0.00 | 0.00 | 0.00 | 92 | 1020.5 |
| 20260509024937 | 9 | 92 | 1.6 | 3.2 | 0.00 | 0.00 | 0.00 | 92 | 1020.6 |
| 20260509024437 | 9 | 75 | 0.0 | 3.2 | 0.00 | 0.00 | 0.00 | 92 | 1020.6 |
| 20260509023937 | 9 | 75 | 0.0 | 3.2 | 0.00 | 0.00 | 0.00 | 92 | 1020.6 |
| 20260509023434 | 9 | 79 | 0.0 | 4.8 | 0.00 | 0.00 | 0.00 | 92 | 1020.5 |
| 20260509022928 | 9 | 77 | 0.0 | 4.8 | 0.00 | 0.00 | 0.00 | 92 | 1020.6 |
| 20260509022429 | 9 | 81 | 0.0 | 3.2 | 0.00 | 0.00 | 0.00 | 92 | 1020.7 |
| 20260509021928 | 9 | 82 | 0.0 | 3.2 | 0.00 | 0.00 | 0.00 | 92 | 1020.7 |
| 20260509021425 | 9 | 84 | 0.0 | 1.6 | 0.00 | 0.00 | 0.00 | 92 | 1020.8 |
| 20260509020925 | 9 | 84 | 0.0 | 1.6 | 0.00 | 0.00 | 0.00 | 92 | 1020.8 |
| 20260509020425 | 9 | 84 | 0.0 | 3.2 | 0.00 | 0.00 | 0.00 | 92 | 1020.8 |
| 20260509015926 | 9 | 84 | 1.6 | 4.8 | 0.00 | 0.00 | 0.00 | 92 | 1020.8 |
| 20260509015425 | 9 | 94 | 1.6 | 4.8 | 0.00 | 0.00 | 0.00 | 92 | 1020.7 |
| 20260509014923 | 9 | 77 | 1.6 | 3.2 | 0.00 | 0.00 | 0.00 | 92 | 1020.5 |
| 20260509014423 | 9 | 91 | 1.6 | 4.8 | 0.00 | 0.00 | 0.00 | 92 | 1020.6 |
| 20260509013923 | 9 | 103 | 3.2 | 8.0 | 0.00 | 0.00 | 0.00 | 92 | 1020.5 |
| 20260509013421 | 9 | 95 | 3.2 | 8.0 | 0.00 | 0.00 | 0.00 | 92 | 1020.5 |
| 20260509012920 | 9 | 84 | 3.2 | 8.0 | 0.00 | 0.00 | 0.00 | 92 | 1020.5 |
| 20260509012422 | 10 | 82 | 3.2 | 8.0 | 0.00 | 0.00 | 0.00 | 92 | 1020.5 |
| 20260509011921 | 9 | 67 | 3.2 | 8.0 | 0.00 | 0.00 | 0.00 | 92 | 1020.6 |
| 20260509011420 | 10 | 92 | 3.2 | 6.4 | 0.00 | 0.00 | 0.00 | 93 | 1020.6 |
| 20260509010914 | 9 | 93 | 3.2 | 6.4 | 0.00 | 0.00 | 0.00 | 92 | 1020.7 |
| 20260509010408 | 9 | 107 | 3.2 | 8.0 | 0.00 | 0.00 | 0.00 | 92 | 1020.7 |
| 20260509005906 | 9 | 150 | 3.2 | 8.0 | 0.00 | 0.00 | 0.00 | 92 | 1020.7 |
| 20260509005403 | 10 | 109 | 4.8 | 8.0 | 0.00 | 0.00 | 0.00 | 92 | 1020.6 |
| 20260509004903 | 10 | 88 | 3.2 | 8.0 | 0.00 | 0.00 | 0.00 | 93 | 1020.6 |
| 20260509004402 | 10 | 85 | 3.2 | 8.0 | 0.00 | 0.00 | 0.00 | 93 | 1020.7 |
| 20260509003903 | 10 | 97 | 4.8 | 9.7 | 0.00 | 0.00 | 0.00 | 93 | 1020.6 |
| 20260509003403 | 10 | 54 | 4.8 | 9.7 | 0.00 | 0.00 | 0.00 | 93 | 1020.6 |
| 20260509002903 | 10 | 67 | 6.4 | 9.7 | 0.00 | 0.00 | 0.00 | 93 | 1020.5 |
| 20260509002404 | 10 | 77 | 4.8 | 11.3 | 0.00 | 0.00 | 0.00 | 93 | 1020.6 |
| 20260509001902 | 10 | 87 | 4.8 | 11.3 | 0.00 | 0.00 | 0.00 | 93 | 1020.6 |
| 20260509000903 | 10 | 124 | 6.4 | 12.9 | 0.00 | 0.00 | 0.00 | 93 | 1020.6 |
| 20260509000403 | 10 | 109 | 6.4 | 12.9 | 0.00 | 0.00 | 0.00 | 93 | 1020.6 |
| 20260508235902 | 10 | 193 | 6.4 | 9.7 | 0.00 | 0.00 | 0.00 | 93 | 1020.6 |
| 20260508235404 | 10 | 93 | 6.4 | 11.3 | 0.00 | 0.00 | 0.00 | 93 | 1020.6 |
| 20260508234902 | 10 | 78 | 6.4 | 11.3 | 0.00 | 0.00 | 0.00 | 93 | 1020.6 |
| 20260508234400 | 10 | 84 | 6.4 | 9.7 | 0.00 | 0.00 | 0.00 | 93 | 1020.6 |
| 20260508233901 | 10 | 95 | 6.4 | 11.3 | 0.00 | 0.00 | 0.00 | 93 | 1020.8 |
| 20260508233400 | 10 | 80 | 6.4 | 11.3 | 0.00 | 0.00 | 0.00 | 93 | 1020.8 |
| 20260508232859 | 10 | 92 | 4.8 | 9.7 | 0.00 | 0.00 | 0.00 | 93 | 1020.8 |
| 20260508232359 | 10 | 90 | 4.8 | 9.7 | 0.00 | 0.00 | 0.00 | 93 | 1020.9 |
| 20260508231900 | 10 | 96 | 4.8 | 11.3 | 0.00 | 0.00 | 0.00 | 93 | 1020.9 |
| 20260508231412 | 10 | 64 | 4.8 | 11.3 | 0.00 | 0.00 | 0.00 | 93 | 1020.8 |
| 20260508230858 | 10 | 86 | 4.8 | 11.3 | 0.00 | 0.00 | 0.00 | 93 | 1020.7 |
| 20260508230357 | 10 | 69 | 4.8 | 11.3 | 0.00 | 0.00 | 0.00 | 93 | 1020.8 |
| 20260508225854 | 10 | 56 | 6.4 | 9.7 | 0.00 | 0.00 | 0.00 | 93 | 1020.8 |
| 20260508225355 | 10 | 96 | 4.8 | 9.7 | 0.00 | 0.00 | 0.00 | 93 | 1020.8 |
| 20260508224855 | 10 | 104 | 4.8 | 9.7 | 0.00 | 0.00 | 0.00 | 92 | 1020.7 |
| 20260508224354 | 10 | 96 | 4.8 | 9.7 | 0.00 | 0.00 | 0.00 | 93 | 1020.6 |
| 20260508223854 | 10 | 91 | 4.8 | 9.7 | 0.00 | 0.00 | 0.00 | 92 | 1020.7 |
| 20260508223353 | 10 | 63 | 4.8 | 9.7 | 0.00 | 0.00 | 0.00 | 93 | 1020.7 |
| 20260508222847 | 10 | 86 | 4.8 | 9.7 | 0.00 | 0.00 | 0.00 | 93 | 1020.7 |
| 20260508222342 | 10 | 68 | 4.8 | 8.0 | 0.00 | 0.00 | 0.00 | 92 | 1020.8 |
| 20260508221838 | 10 | 82 | 4.8 | 8.0 | 0.00 | 0.00 | 0.00 | 93 | 1020.8 |
| 20260508221336 | 10 | 75 | 4.8 | 11.3 | 0.00 | 0.00 | 0.00 | 92 | 1020.7 |
| 20260508220835 | 10 | 86 | 6.4 | 11.3 | 0.00 | 0.00 | 0.00 | 93 | 1020.7 |
| 20260508220336 | 10 | 98 | 4.8 | 11.3 | 0.00 | 0.00 | 0.00 | 93 | 1020.8 |
| 20260508215836 | 10 | 61 | 4.8 | 9.7 | 0.00 | 0.00 | 0.00 | 93 | 1020.8 |
| 20260508215335 | 10 | 49 | 4.8 | 9.7 | 0.00 | 0.00 | 0.00 | 93 | 1020.8 |
| 20260508214836 | 10 | 79 | 4.8 | 9.7 | 0.00 | 0.00 | 0.00 | 93 | 1020.7 |
| 20260508214336 | 10 | 92 | 4.8 | 9.7 | 0.00 | 0.00 | 0.00 | 93 | 1020.7 |
| 20260508213836 | 10 | 80 | 4.8 | 9.7 | 0.00 | 0.00 | 0.00 | 92 | 1020.6 |
| 20260508213336 | 10 | 127 | 3.2 | 8.0 | 0.00 | 0.00 | 0.00 | 92 | 1020.8 |
| 20260508212836 | 10 | 96 | 3.2 | 8.0 | 0.00 | 0.00 | 0.00 | 92 | 1020.6 |
| 20260508212335 | 10 | 104 | 4.8 | 8.0 | 0.00 | 0.00 | 0.00 | 92 | 1020.6 |
| 20260508211833 | 10 | 100 | 4.8 | 8.0 | 0.00 | 0.00 | 0.00 | 92 | 1020.6 |
| 20260508211336 | 10 | 101 | 4.8 | 8.0 | 0.00 | 0.00 | 0.00 | 92 | 1020.6 |
| 20260508210834 | 10 | 93 | 4.8 | 9.7 | 0.00 | 0.00 | 0.00 | 92 | 1020.6 |
| 20260508210334 | 10 | 100 | 4.8 | 9.7 | 0.00 | 0.00 | 0.00 | 92 | 1020.6 |
| 20260508205834 | 10 | 87 | 4.8 | 9.7 | 0.00 | 0.00 | 0.00 | 92 | 1020.6 |
| 20260508205334 | 10 | 44 | 3.2 | 9.7 | 0.00 | 0.00 | 0.00 | 92 | 1020.6 |
| 20260508204834 | 10 | 88 | 3.2 | 6.4 | 0.00 | 0.00 | 0.00 | 92 | 1020.6 |
| 20260508204333 | 10 | 69 | 3.2 | 8.0 | 0.00 | 0.00 | 0.00 | 92 | 1020.5 |
| 20260508203834 | 10 | 53 | 4.8 | 8.0 | 0.00 | 0.00 | 0.00 | 92 | 1020.5 |
| 20260508203333 | 10 | 41 | 3.2 | 9.7 | 0.00 | 0.00 | 0.00 | 92 | 1020.6 |
| 20260508202834 | 10 | 79 | 3.2 | 9.7 | 0.00 | 0.00 | 0.00 | 92 | 1020.4 |
| 20260508202334 | 10 | 79 | 4.8 | 11.3 | 0.00 | 0.00 | 0.00 | 92 | 1020.4 |
| 20260508201834 | 10 | 71 | 4.8 | 12.9 | 0.00 | 0.00 | 0.00 | 92 | 1020.3 |
| 20260508201333 | 10 | 34 | 4.8 | 12.9 | 0.00 | 0.00 | 0.00 | 92 | 1020.2 |
| 20260508200833 | 10 | 67 | 6.4 | 11.3 | 0.00 | 0.00 | 0.00 | 92 | 1020.2 |
| 20260508200333 | 10 | 88 | 6.4 | 11.3 | 0.00 | 0.00 | 0.00 | 92 | 1020.2 |
| 20260508195834 | 10 | 78 | 4.8 | 11.3 | 0.00 | 0.00 | 0.00 | 92 | 1020.2 |
| 20260508195334 | 10 | 79 | 4.8 | 9.7 | 0.00 | 0.00 | 0.00 | 92 | 1020.2 |
| 20260508194834 | 10 | 68 | 4.8 | 11.3 | 0.00 | 0.00 | 0.00 | 92 | 1020.2 |
| 20260508194334 | 10 | 43 | 4.8 | 14.5 | 0.00 | 0.00 | 0.00 | 92 | 1020.2 |
| 20260508193834 | 10 | 86 | 6.4 | 14.5 | 0.00 | 0.00 | 0.00 | 92 | 1020.2 |
| 20260508193334 | 10 | 84 | 8.0 | 14.5 | 0.00 | 0.00 | 0.00 | 92 | 1020.2 |
| 20260508192833 | 10 | 82 | 9.7 | 14.5 | 0.00 | 0.00 | 0.00 | 92 | 1020.1 |
| 20260508192330 | 10 | 84 | 8.0 | 14.5 | 0.00 | 0.00 | 0.00 | 92 | 1020.1 |
| 20260508191830 | 10 | 66 | 8.0 | 14.5 | 0.00 | 0.00 | 0.00 | 92 | 1020.0 |
| 20260508191329 | 10 | 117 | 8.0 | 14.5 | 0.00 | 0.00 | 0.00 | 91 | 1019.9 |
| 20260508190830 | 10 | 86 | 8.0 | 14.5 | 0.00 | 0.00 | 0.00 | 91 | 1019.7 |
| 20260508190333 | 10 | 89 | 8.0 | 14.5 | 0.00 | 0.00 | 0.00 | 91 | 1019.7 |
| 20260508185829 | 10 | 82 | 8.0 | 14.5 | 0.00 | 0.00 | 0.00 | 91 | 1019.7 |
| 20260508185330 | 10 | 88 | 8.0 | 14.5 | 0.00 | 0.00 | 0.00 | 90 | 1019.7 |
| 20260508184830 | 10 | 68 | 6.4 | 14.5 | 0.00 | 0.00 | 0.00 | 90 | 1019.7 |
| 20260508184324 | 10 | 55 | 6.4 | 12.9 | 0.00 | 0.00 | 0.00 | 89 | 1019.8 |
| 20260508183823 | 10 | 65 | 4.8 | 12.9 | 0.00 | 0.00 | 0.00 | 89 | 1019.8 |
| 20260508183323 | 10 | 37 | 4.8 | 12.9 | 0.00 | 0.00 | 0.00 | 88 | 1019.8 |
| 20260508182824 | 10 | 64 | 4.8 | 9.7 | 0.00 | 0.00 | 0.00 | 87 | 1019.8 |
| 20260508182323 | 10 | 77 | 3.2 | 9.7 | 0.00 | 0.00 | 0.00 | 87 | 1019.8 |
| 20260508181824 | 11 | 28 | 3.2 | 9.7 | 0.00 | 0.00 | 0.00 | 87 | 1019.7 |
| 20260508181323 | 10 | 39 | 3.2 | 9.7 | 0.00 | 0.00 | 0.00 | 87 | 1019.8 |
| 20260508180822 | 10 | 84 | 3.2 | 9.7 | 0.00 | 0.00 | 0.00 | 87 | 1019.7 |
| 20260508180321 | 10 | 59 | 3.2 | 8.0 | 0.00 | 0.00 | 0.00 | 87 | 1019.8 |
| 20260508175821 | 10 | 31 | 3.2 | 9.7 | 0.00 | 0.00 | 0.00 | 87 | 1019.7 |
| 20260508175320 | 10 | 124 | 3.2 | 9.7 | 0.00 | 0.00 | 0.00 | 88 | 1019.6 |
| 20260508174813 | 10 | 77 | 4.8 | 9.7 | 0.00 | 0.00 | 0.00 | 88 | 1019.5 |
| 20260508174306 | 10 | 88 | 4.8 | 9.7 | 0.00 | 0.00 | 0.00 | 87 | 1019.4 |
| 20260508173805 | 10 | 81 | 4.8 | 9.7 | 0.00 | 0.00 | 0.00 | 87 | 1019.3 |
| 20260508173306 | 10 | 93 | 4.8 | 8.0 | 0.00 | 0.00 | 0.00 | 87 | 1019.4 |
| 20260508172806 | 10 | 79 | 4.8 | 8.0 | 0.00 | 0.00 | 0.00 | 88 | 1019.4 |
| 20260508172307 | 10 | 90 | 4.8 | 8.0 | 0.00 | 0.00 | 0.00 | 87 | 1019.4 |
| 20260508171803 | 10 | 81 | 3.2 | 8.0 | 0.00 | 0.00 | 0.00 | 87 | 1019.3 |
| 20260508171303 | 10 | 95 | 3.2 | 8.0 | 0.00 | 0.00 | 0.00 | 87 | 1019.2 |
| 20260508170801 | 11 | 68 | 3.2 | 8.0 | 0.00 | 0.00 | 0.00 | 87 | 1019.2 |
| 20260508170301 | 11 | 102 | 4.8 | 9.7 | 0.00 | 0.00 | 0.00 | 87 | 1019.0 |
| 20260508165801 | 11 | 82 | 4.8 | 12.9 | 0.00 | 0.00 | 0.00 | 87 | 1019.1 |
| 20260508165301 | 10 | 55 | 6.4 | 12.9 | 0.00 | 0.00 | 0.00 | 87 | 1019.0 |
| 20260508164801 | 11 | 85 | 6.4 | 14.5 | 0.00 | 0.00 | 0.00 | 87 | 1019.0 |
| 20260508164301 | 10 | 94 | 6.4 | 14.5 | 0.00 | 0.00 | 0.00 | 86 | 1019.1 |
| 20260508163801 | 10 | 86 | 8.0 | 14.5 | 0.00 | 0.00 | 0.00 | 86 | 1019.1 |
| 20260508163301 | 10 | 93 | 9.7 | 16.1 | 0.00 | 0.00 | 0.00 | 85 | 1019.1 |
| 20260508162800 | 10 | 79 | 9.7 | 16.1 | 0.00 | 0.00 | 0.00 | 85 | 1019.1 |
| 20260508162301 | 10 | 115 | 9.7 | 16.1 | 0.00 | 0.00 | 0.00 | 84 | 1019.0 |
| 20260508161801 | 11 | 117 | 9.7 | 19.3 | 0.00 | 0.00 | 0.00 | 83 | 1018.9 |
| 20260508161300 | 11 | 61 | 11.3 | 19.3 | 0.00 | 0.00 | 0.00 | 82 | 1018.9 |
| 20260508160801 | 11 | 74 | 12.9 | 22.5 | 0.00 | 0.00 | 0.00 | 82 | 1018.9 |
| 20260508160302 | 10 | 106 | 14.5 | 22.5 | 0.00 | 0.00 | 0.00 | 81 | 1018.9 |
| 20260508155801 | 10 | 75 | 14.5 | 20.9 | 0.00 | 0.00 | 0.00 | 78 | 1018.9 |
| 20260508155301 | 11 | 93 | 12.9 | 22.5 | 0.00 | 0.00 | 0.00 | 78 | 1018.8 |
| 20260508154801 | 11 | 114 | 12.9 | 22.5 | 0.00 | 0.00 | 0.00 | 78 | 1018.8 |
| 20260508154301 | 11 | 88 | 11.3 | 20.9 | 0.00 | 0.00 | 0.00 | 76 | 1019.0 |
| 20260508153801 | 11 | 87 | 11.3 | 19.3 | 0.00 | 0.00 | 0.00 | 78 | 1019.1 |
| 20260508153301 | 11 | 89 | 11.3 | 19.3 | 0.00 | 0.00 | 0.00 | 80 | 1019.0 |
| 20260508152801 | 11 | 86 | 12.9 | 19.3 | 0.00 | 0.00 | 0.00 | 82 | 1018.9 |
| 20260508152301 | 10 | 83 | 12.9 | 17.7 | 0.00 | 0.00 | 0.00 | 82 | 1018.9 |
| 20260508151801 | 10 | 26 | 12.9 | 20.9 | 0.00 | 0.00 | 0.00 | 83 | 1019.0 |
| 20260508151300 | 10 | 96 | 12.9 | 20.9 | 0.00 | 0.00 | 0.00 | 83 | 1018.9 |
| 20260508150801 | 10 | 94 | 12.9 | 20.9 | 0.00 | 0.00 | 0.00 | 84 | 1018.9 |
| 20260508150301 | 10 | 92 | 12.9 | 19.3 | 0.00 | 0.00 | 0.00 | 83 | 1018.9 |
| 20260508145801 | 10 | 70 | 12.9 | 19.3 | 0.00 | 0.00 | 0.00 | 84 | 1018.8 |
| 20260508145301 | 10 | 92 | 11.3 | 19.3 | 0.00 | 0.00 | 0.00 | 85 | 1019.0 |
| 20260508144801 | 10 | 41 | 11.3 | 19.3 | 0.00 | 0.00 | 0.00 | 85 | 1018.9 |
| 20260508144301 | 10 | 79 | 11.3 | 19.3 | 0.00 | 0.00 | 0.00 | 86 | 1018.9 |
| 20260508143801 | 10 | 70 | 12.9 | 20.9 | 0.00 | 0.00 | 0.00 | 86 | 1019.0 |
| 20260508143301 | 10 | 92 | 12.9 | 22.5 | 0.00 | 0.00 | 0.00 | 87 | 1019.0 |
| 20260508142801 | 10 | 96 | 11.3 | 22.5 | 0.00 | 0.00 | 0.00 | 87 | 1019.0 |
| 20260508142300 | 10 | 87 | 11.3 | 19.3 | 0.00 | 0.00 | 0.00 | 87 | 1019.0 |
| 20260508141801 | 10 | 64 | 11.3 | 19.3 | 0.00 | 0.00 | 0.00 | 88 | 1019.0 |
| 20260508141302 | 10 | 112 | 11.3 | 19.3 | 0.00 | 0.00 | 0.00 | 87 | 1019.0 |
| 20260508140801 | 10 | 107 | 11.3 | 22.5 | 0.00 | 0.00 | 0.00 | 87 | 1019.0 |
| 20260508140254 | 10 | 107 | 12.9 | 22.5 | 0.00 | 0.00 | 0.00 | 88 | 1019.0 |
| 20260508135755 | 10 | 136 | 14.5 | 22.5 | 0.00 | 0.00 | 0.00 | 89 | 1019.0 |
| 20260508135255 | 10 | 92 | 14.5 | 22.5 | 0.00 | 0.00 | 0.00 | 87 | 1019.1 |
| 20260508134754 | 10 | 98 | 14.5 | 20.9 | 0.00 | 0.00 | 0.00 | 88 | 1019.1 |
| 20260508134255 | 10 | 84 | 14.5 | 20.9 | 0.00 | 0.00 | 0.00 | 86 | 1019.0 |
| 20260508133755 | 10 | 96 | 14.5 | 20.9 | 0.00 | 0.00 | 0.00 | 87 | 1019.0 |
| 20260508133255 | 10 | 112 | 12.9 | 20.9 | 0.00 | 0.00 | 0.00 | 87 | 1019.0 |
| 20260508132755 | 10 | 101 | 12.9 | 20.9 | 0.00 | 0.00 | 0.00 | 87 | 1019.0 |
| 20260508132255 | 10 | 122 | 11.3 | 20.9 | 0.00 | 0.00 | 0.00 | 87 | 1018.9 |
| 20260508131755 | 10 | 125 | 11.3 | 17.7 | 0.00 | 0.00 | 0.00 | 87 | 1019.0 |
| 20260508131255 | 10 | 70 | 11.3 | 17.7 | 0.00 | 0.00 | 0.00 | 87 | 1019.1 |
| 20260508130755 | 10 | 76 | 11.3 | 16.1 | 0.00 | 0.00 | 0.00 | 86 | 1019.0 |
| 20260508130255 | 10 | 101 | 11.3 | 16.1 | 0.00 | 0.00 | 0.00 | 87 | 1019.2 |
| 20260508125755 | 11 | 229 | 9.7 | 16.1 | 0.00 | 0.00 | 0.00 | 87 | 1019.1 |
| 20260508125255 | 11 | 66 | 9.7 | 16.1 | 0.00 | 0.00 | 0.00 | 87 | 1019.1 |
| 20260508124752 | 11 | 90 | 9.7 | 16.1 | 0.00 | 0.00 | 0.00 | 86 | 1019.1 |
| 20260508124253 | 11 | 30 | 9.7 | 16.1 | 0.00 | 0.00 | 0.00 | 86 | 1019.1 |
| 20260508123753 | 11 | 98 | 9.7 | 16.1 | 0.00 | 0.00 | 0.00 | 86 | 1019.1 |
| 20260508123253 | 11 | 43 | 9.7 | 14.5 | 0.00 | 0.00 | 0.00 | 86 | 1019.1 |
| 20260508122753 | 11 | 92 | 8.0 | 16.1 | 0.00 | 0.00 | 0.00 | 86 | 1019.0 |
| 20260508122253 | 11 | 97 | 8.0 | 16.1 | 0.00 | 0.00 | 0.00 | 86 | 1019.0 |
| 20260508121753 | 11 | 144 | 6.4 | 14.5 | 0.00 | 0.00 | 0.00 | 86 | 1019.1 |
| 20260508121253 | 11 | 91 | 6.4 | 14.5 | 0.00 | 0.00 | 0.00 | 86 | 1019.0 |
| 20260508120753 | 11 | 65 | 6.4 | 14.5 | 0.00 | 0.00 | 0.00 | 86 | 1019.1 |
| 20260508120252 | 11 | 143 | 6.4 | 14.5 | 0.00 | 0.00 | 0.00 | 85 | 1019.1 |
| 20260508115753 | 11 | 81 | 4.8 | 12.9 | 0.00 | 0.00 | 0.00 | 85 | 1019.1 |
| 20260508115253 | 11 | 160 | 4.8 | 9.7 | 0.00 | 0.00 | 0.00 | 85 | 1019.1 |
| 20260508114752 | 11 | 334 | 4.8 | 9.7 | 0.00 | 0.00 | 0.00 | 85 | 1019.0 |
| 20260508114253 | 11 | 105 | 4.8 | 11.3 | 0.00 | 0.00 | 0.00 | 85 | 1019.0 |
| 20260508113753 | 11 | 175 | 4.8 | 11.3 | 0.00 | 0.00 | 0.00 | 86 | 1019.0 |
| 20260508113253 | 11 | 211 | 4.8 | 11.3 | 0.00 | 0.00 | 0.00 | 86 | 1019.0 |
| 20260508112753 | 11 | 129 | 6.4 | 12.9 | 0.00 | 0.00 | 0.00 | 86 | 1019.1 |
| 20260508112253 | 11 | 58 | 8.0 | 14.5 | 0.00 | 0.00 | 0.00 | 87 | 1019.0 |
| 20260508111753 | 11 | 132 | 9.7 | 14.5 | 0.00 | 0.00 | 0.00 | 87 | 1018.9 |
| 20260508111252 | 11 | 145 | 9.7 | 14.5 | 0.00 | 0.00 | 0.00 | 87 | 1019.0 |
| 20260508110752 | 11 | 156 | 8.0 | 14.5 | 0.00 | 0.00 | 0.00 | 86 | 1018.9 |
| 20260508110305 | 11 | 144 | 8.0 | 16.1 | 0.00 | 0.00 | 0.00 | 87 | 1018.9 |
| 20260508105752 | 11 | 144 | 8.0 | 16.1 | 0.00 | 0.00 | 0.00 | 87 | 1018.9 |
| 20260508105252 | 11 | 151 | 6.4 | 12.9 | 0.00 | 0.00 | 0.00 | 87 | 1018.8 |
| 20260508104752 | 11 | 148 | 8.0 | 12.9 | 0.00 | 0.00 | 0.00 | 87 | 1018.8 |
| 20260508104253 | 11 | 155 | 9.7 | 12.9 | 0.00 | 0.00 | 0.00 | 87 | 1018.8 |
| 20260508103753 | 11 | 147 | 9.7 | 12.9 | 0.00 | 0.00 | 0.00 | 87 | 1018.9 |
| 20260508103248 | 11 | 139 | 9.7 | 12.9 | 0.00 | 0.00 | 0.00 | 87 | 1018.8 |
| 20260508102749 | 11 | 129 | 9.7 | 12.9 | 0.00 | 0.00 | 0.00 | 87 | 1018.8 |
| 20260508102248 | 10 | 172 | 8.0 | 12.9 | 0.00 | 0.00 | 0.00 | 87 | 1018.8 |
| 20260508101748 | 10 | 188 | 6.4 | 12.9 | 0.00 | 0.00 | 0.00 | 88 | 1018.8 |
| 20260508101248 | 10 | 149 | 6.4 | 11.3 | 0.00 | 0.00 | 0.00 | 88 | 1018.8 |
| 20260508100749 | 10 | 177 | 8.0 | 11.3 | 0.00 | 0.00 | 0.00 | 88 | 1018.8 |
| 20260508100248 | 10 | 148 | 8.0 | 12.9 | 0.00 | 0.00 | 0.00 | 87 | 1018.8 |
| 20260508095747 | 10 | 170 | 8.0 | 12.9 | 0.00 | 0.00 | 0.00 | 87 | 1018.8 |
| 20260508095249 | 10 | 158 | 8.0 | 11.3 | 0.00 | 0.00 | 0.00 | 88 | 1018.8 |
| 20260508094748 | 10 | 150 | 9.7 | 12.9 | 0.00 | 0.00 | 0.00 | 88 | 1018.7 |
| 20260508094248 | 10 | 153 | 9.7 | 14.5 | 0.00 | 0.00 | 0.00 | 88 | 1018.8 |
| 20260508093749 | 10 | 174 | 11.3 | 14.5 | 0.00 | 0.00 | 0.00 | 88 | 1018.9 |
| 20260508093248 | 10 | 176 | 11.3 | 14.5 | 0.00 | 0.00 | 0.00 | 88 | 1018.8 |
| 20260508092748 | 10 | 174 | 11.3 | 14.5 | 0.00 | 0.00 | 0.00 | 88 | 1018.7 |
| 20260508092248 | 10 | 174 | 9.7 | 16.1 | 0.00 | 0.00 | 0.00 | 88 | 1018.7 |
| 20260508091748 | 10 | 178 | 9.7 | 16.1 | 0.00 | 0.00 | 0.00 | 88 | 1018.7 |
| 20260508091248 | 10 | 205 | 9.7 | 14.5 | 0.00 | 0.00 | 0.00 | 89 | 1018.7 |
| 20260508090748 | 10 | 174 | 11.3 | 16.1 | 0.00 | 0.00 | 0.00 | 89 | 1018.7 |
| 20260508090248 | 10 | 169 | 11.3 | 16.1 | 0.00 | 0.00 | 0.00 | 89 | 1018.8 |
| 20260508085748 | 10 | 151 | 11.3 | 14.5 | 0.00 | 0.00 | 0.00 | 89 | 1018.7 |
| 20260508085249 | 10 | 168 | 11.3 | 16.1 | 0.00 | 0.00 | 0.00 | 89 | 1018.7 |
| 20260508084749 | 10 | 150 | 12.9 | 16.1 | 0.00 | 0.00 | 0.00 | 89 | 1018.7 |
| 20260508084248 | 10 | 205 | 11.3 | 16.1 | 0.00 | 0.00 | 0.00 | 89 | 1018.7 |
| 20260508083749 | 10 | 176 | 11.3 | 16.1 | 0.00 | 0.00 | 0.00 | 89 | 1018.7 |
| 20260508083248 | 10 | 169 | 11.3 | 16.1 | 0.00 | 0.00 | 0.00 | 89 | 1018.7 |
| 20260508082748 | 10 | 188 | 11.3 | 16.1 | 0.00 | 0.00 | 0.00 | 89 | 1018.7 |
| 20260508082248 | 10 | 178 | 11.3 | 16.1 | 0.00 | 0.00 | 0.00 | 89 | 1018.7 |
| 20260508081748 | 10 | 188 | 12.9 | 17.7 | 0.00 | 0.00 | 0.00 | 89 | 1018.7 |
| 20260508081247 | 10 | 147 | 12.9 | 17.7 | 0.00 | 0.00 | 0.00 | 89 | 1018.7 |
| 20260508080748 | 9 | 148 | 14.5 | 20.9 | 0.00 | 0.00 | 0.00 | 89 | 1018.6 |
| 20260508080248 | 9 | 174 | 14.5 | 20.9 | 0.00 | 0.00 | 0.00 | 89 | 1018.6 |
| 20260508075748 | 9 | 191 | 14.5 | 19.3 | 0.00 | 0.00 | 0.00 | 89 | 1018.6 |
| 20260508075248 | 9 | 154 | 14.5 | 19.3 | 0.00 | 0.00 | 0.00 | 89 | 1018.6 |
| 20260508074748 | 9 | 177 | 14.5 | 19.3 | 0.00 | 0.00 | 0.00 | 89 | 1018.5 |
| 20260508074249 | 9 | 167 | 14.5 | 19.3 | 0.00 | 0.00 | 0.00 | 89 | 1018.4 |
| 20260508073748 | 9 | 172 | 14.5 | 19.3 | 0.00 | 0.00 | 0.00 | 89 | 1018.4 |
| 20260508073246 | 9 | 179 | 14.5 | 19.3 | 0.00 | 0.00 | 0.00 | 89 | 1018.4 |
| 20260508072746 | 9 | 190 | 14.5 | 19.3 | 0.00 | 0.00 | 0.00 | 88 | 1018.5 |
| 20260508072245 | 9 | 197 | 14.5 | 22.5 | 0.00 | 0.00 | 0.00 | 88 | 1018.4 |
| 20260508071745 | 9 | 178 | 16.1 | 22.5 | 0.00 | 0.00 | 0.00 | 88 | 1018.3 |
| 20260508071244 | 9 | 176 | 14.5 | 20.9 | 0.00 | 0.00 | 0.00 | 88 | 1018.3 |
| 20260508070744 | 9 | 185 | 14.5 | 19.3 | 0.00 | 0.00 | 0.00 | 89 | 1018.2 |
| 20260508070243 | 9 | 183 | 14.5 | 22.5 | 0.00 | 0.00 | 0.00 | 89 | 1018.0 |
| 20260508065742 | 9 | 186 | 14.5 | 22.5 | 0.00 | 0.00 | 0.00 | 89 | 1018.0 |
| 20260508065242 | 9 | 174 | 16.1 | 20.9 | 0.00 | 0.00 | 0.00 | 88 | 1017.9 |
| 20260508064742 | 9 | 166 | 14.5 | 19.3 | 0.00 | 0.00 | 0.00 | 89 | 1018.0 |
| 20260508064240 | 9 | 178 | 14.5 | 19.3 | 0.00 | 0.00 | 0.00 | 89 | 1017.9 |
| 20260508063739 | 9 | 167 | 16.1 | 20.9 | 0.00 | 0.00 | 0.00 | 88 | 1017.8 |
| 20260508063240 | 9 | 174 | 16.1 | 20.9 | 0.00 | 0.00 | 0.00 | 88 | 1017.9 |
| 20260508062740 | 9 | 176 | 14.5 | 20.9 | 0.00 | 0.00 | 0.00 | 88 | 1017.8 |
| 20260508062240 | 9 | 173 | 14.5 | 20.9 | 0.00 | 0.00 | 0.00 | 88 | 1017.8 |
| 20260508061740 | 9 | 176 | 14.5 | 19.3 | 0.00 | 0.00 | 0.00 | 88 | 1017.9 |
| 20260508061240 | 9 | 198 | 14.5 | 20.9 | 0.00 | 0.00 | 0.00 | 89 | 1017.8 |
| 20260508060740 | 9 | 167 | 14.5 | 20.9 | 0.00 | 0.00 | 0.00 | 88 | 1017.8 |
| 20260508060238 | 9 | 176 | 14.5 | 17.7 | 0.00 | 0.00 | 0.00 | 89 | 1017.8 |
| 20260508055738 | 9 | 178 | 14.5 | 20.9 | 0.00 | 0.00 | 0.00 | 88 | 1017.8 |
| 20260508055238 | 9 | 186 | 14.5 | 20.9 | 0.00 | 0.00 | 0.00 | 88 | 1017.8 |
| 20260508054738 | 9 | 184 | 14.5 | 19.3 | 0.00 | 0.00 | 0.00 | 88 | 1017.8 |
| 20260508054238 | 9 | 175 | 14.5 | 19.3 | 0.00 | 0.00 | 0.00 | 88 | 1017.7 |
| 20260508053738 | 9 | 172 | 14.5 | 22.5 | 0.00 | 0.00 | 0.00 | 89 | 1017.7 |
| 20260508053238 | 9 | 186 | 16.1 | 22.5 | 0.00 | 0.00 | 0.00 | 88 | 1017.7 |
| 20260508052737 | 9 | 170 | 16.1 | 20.9 | 0.00 | 0.00 | 0.00 | 88 | 1017.4 |
| 20260508052237 | 9 | 195 | 16.1 | 20.9 | 0.00 | 0.00 | 0.00 | 88 | 1017.5 |
| 20260508051738 | 9 | 176 | 14.5 | 20.9 | 0.00 | 0.00 | 0.00 | 88 | 1017.5 |
| 20260508051236 | 9 | 162 | 12.9 | 19.3 | 0.00 | 0.00 | 0.00 | 88 | 1017.4 |
| 20260508050736 | 9 | 184 | 14.5 | 19.3 | 0.00 | 0.00 | 0.00 | 88 | 1017.5 |
| 20260508050236 | 9 | 172 | 12.9 | 19.3 | 0.00 | 0.00 | 0.00 | 88 | 1017.4 |
| 20260508045736 | 9 | 158 | 12.9 | 19.3 | 0.00 | 0.00 | 0.00 | 88 | 1017.4 |